Location: Alafon
(8.4500°N, 4.2333°E)
Time: 08:40:33
(UTC+00:00)

N. Korean satellite - Pass Details

Date: 18 June 2021
Orbit: 451 x 497 km, 97.2° (Epoch: 27 July)

Event Time Altitude Azimuth Distance (km) Brightness Sun altitude
Rises 03:59:39 0° 38° (NE) 2,556 11.4 -20.0°
Reaches altitude 10° 04:02:21 10° 60° (ENE) 1,683 10.5 -19.4°
Maximum altitude 04:04:38 16° 100° (E) 1,355 9.5 -18.9°
Drops below altitude 10° 04:06:56 10° 139° (SE) 1,693 9.5 -18.4°
Sets 04:09:38 0° 161° (SSE) 2,578 10.2 -17.8°
